Location: Peebles
(55.6412°N, 3.1714°W)
Time: 22:54:08
(UTC+01:00)

CENTAUR R/B - Pass Details

Date: 27 January 2022
Orbit: 716 x 1471 km, 63.4° (Epoch: 08 May)

Event Time Altitude Azimuth Distance (km) Brightness Sun altitude
Rises 18:04:16 0° 262° (W) 3,609 7.5 -12.1°
Reaches altitude 10° 18:06:42 10° 267° (W) 2,765 6.3 -12.5°
Maximum altitude 18:13:09 53° 344° (NNW) 1,379 3.3 -13.3°
Enters shadow 18:19:28 16° 57° (ENE) 2,833 4.3 -14.2°
